Overview Statistics Trail Chart Weather Telemetry Raw packets
 

This is the latest recevied weather packets stored in our database for station/object EA4RCR-13. If no packets are shown the sender has not sent any weather packets the latest 10 day(s).

<< 54 55 56 57 58 >>
Time Temp. Humidity Pressure Rain* Wind** Luminosity Snow
1787743654 30° C 20% 1014 hPa - - - -
1787743054 30° C 20% 1014.2 hPa - - - -
1787742457 30° C 20% 1014.5 hPa - - - -
1787741854 30.56° C 21% 1014.6 hPa - - - -
1787741254 30.56° C 21% 1014.7 hPa - - - -
1787740655 30.56° C 21% 1014.9 hPa - - - -
1787740053 30.56° C 21% 1014.9 hPa - - - -
1787739453 30.56° C 21% 1014.9 hPa - - - -
1787738853 31.11° C 22% 1014.9 hPa - - - -
1787738253 31.11° C 22% 1015 hPa - - - -
1787737653 31.11° C 22% 1015 hPa - - - -
1787737052 31.67° C 23% 1014.9 hPa - - - -
1787736452 31.67° C 24% 1014.7 hPa - - - -
1787735852 31.67° C 25% 1014.7 hPa - - - -
1787735252 32.22° C 24% 1014.9 hPa - - - -
1787734652 32.22° C 24% 1014.9 hPa - - - -
1787734052 32.22° C 24% 1014.9 hPa - - - -
1787733452 32.22° C 24% 1014.9 hPa - - - -
1787732852 31.67° C 24% 1014.8 hPa - - - -
1787732251 31.67° C 24% 1014.9 hPa - - - -
1787731651 31.67° C 24% 1014.9 hPa - - - -
1787731051 31.67° C 24% 1014.7 hPa - - - -
1787730451 31.67° C 24% 1014.7 hPa - - - -
1787729851 31.67° C 24% 1014.6 hPa - - - -
1787729250 31.67° C 24% 1014.6 hPa - - - -

* Rain since midnight (hover to see other rain measurements)
** Current wind speed in m/s (hover to see current wind gust speed)